Starlink 2153

operational
NORAD ID: 48009 Int'l Des: 2021-024 Owner: SPXS Country: US Constellation: starlink
LEOCIRCULARSTARLINK_TYPE

Über Starlink 2153

Beschreibung wird geladen...

Live-Position

3D-Globus wird geladen...

Nächste Überflüge

Höhenverlauf

Altitude vs Time

uPlot chart will show altitude changes over time

Zweizeiliger Elementsatz

1 48009U 21024AJ 25308.87600841 .00002310 00000-0 17390-3 0 9991
2 48009 53.0531 156.9268 0001486 89.9721 270.1438 15.06404396255973
Epoch: 4. Nov. 2025 • Age: 16 hours

Aktueller Status

Höhe 547.2 km
Geschwindigkeit 7.59 km/s
Subsatellitenpunkt 7.95°N, 79.94°W
Startdatum 24. März 2021
Alter 4.6 years
Typ internet

Technische Details

Klassifizierung Payload
Masse 260.00 kg
Trockenmasse 248.00 kg
Gesamtmasse 260.00 kg
Länge 0.20 m
Durchmesser 2.80 m
Spannweite 9.00 m
Form Box + pan
Hersteller SPXS
Bus-Typ Starlink
Phasenstatus In Orbit
Besitzer/Staat SPXS/US

Große Konstellationen

Loading constellations...